Location: Melbourne
(37.8170°S, 144.9670°E)
Time: 17:48:50
(UTC+10:00)

Transit 2A - All Passes

Search period start: 01 August 2015 00:00
Search period end: 11 August 2015 00:00
Orbit: 597 x 963 km, 66.7° (Epoch: 31 July)

Date Brightness Start Highest point End Pass type
(mag) Time Alt. Az. Time Alt. Az. Time Alt. Az.
01 Aug - 02:55:40 10° SSE 02:58:26 14° SE 03:01:34 10° ESE visible
01 Aug - 04:36:46 10° SSW 04:42:46 71° ESE 04:49:06 10° NE visible
01 Aug - 06:21:33 10° WSW 06:25:40 18° WNW 06:29:35 10° NW visible
01 Aug - 19:15:47 10° NNW 19:20:16 83° ENE 19:25:12 10° SSE visible
01 Aug - 21:02:02 10° WSW 21:04:22 13° SW 21:06:35 10° SSW visible
02 Aug - 04:03:03 10° SSW 04:08:52 51° ESE 04:15:01 10° NE visible
02 Aug - 05:46:55 10° SW 05:51:57 26° WNW 05:56:59 10° NNW visible
02 Aug - 18:42:09 10° N 18:46:29 52° ENE 18:51:16 10° SE visible
02 Aug - 20:26:51 10° W 20:30:10 18° SW 20:33:34 10° S visible
03 Aug - 03:29:25 10° SSW 03:34:53 37° SE 03:40:42 10° ENE visible
03 Aug - 05:12:38 10° SW 05:18:13 37° WNW 05:23:56 10° N visible
03 Aug - 18:08:47 10° N 18:12:46 33° ENE 18:17:08 10° SE visible
03 Aug - 19:52:08 10° WNW 19:56:04 26° SW 20:00:12 10° S visible
04 Aug - 02:55:53 10° S 03:00:51 27° SE 03:06:10 10° ENE visible
04 Aug - 04:38:32 10° SW 04:44:27 54° WNW 04:50:35 10° N visible
04 Aug - 17:35:47 10° NNE 17:39:06 21° ENE 17:42:46 10° ESE daylight
04 Aug - 19:17:44 10° WNW 19:22:01 37° SW 19:26:40 10° SSE visible
05 Aug - 02:22:29 10° S 02:26:44 20° SE 02:31:20 10° E night (unlit)
05 Aug - 04:04:34 10° SSW 04:10:39 76° WNW 04:17:00 10° NNE visible
05 Aug - 05:52:13 10° W 05:53:19 10° WNW 05:53:52 10° WNW visible
05 Aug - 17:03:26 10° NE 17:05:28 13° ENE 17:07:50 10° ESE daylight
05 Aug - 18:43:35 10° NW 18:48:03 56° WSW 18:53:00 10° SSE visible
06 Aug - 01:49:19 10° S 01:52:33 15° SE 01:56:09 10° ESE night (unlit)
06 Aug - 03:30:44 10° SSW 03:36:48 78° ESE 03:43:11 10° NNE visible
06 Aug - 05:15:51 10° WSW 05:19:38 16° WNW 05:23:09 10° NW visible
06 Aug - 18:09:39 10° NNW 18:14:11 87° WSW 18:19:13 10° SSE visible
06 Aug - 19:56:25 10° WSW 19:58:26 12° SW 20:00:19 10° SSW visible
07 Aug - 01:16:46 10° SSE 01:18:18 11° SE 01:20:10 10° ESE night (unlit)
07 Aug - 02:56:58 10° SSW 03:02:54 56° ESE 03:09:09 10° NE night (unlit)
07 Aug - 04:41:04 10° SW 04:45:56 24° WNW 04:50:43 10° NNW visible
07 Aug - 17:35:58 10° NNW 17:40:24 60° ENE 17:45:19 10° SE daylight
07 Aug - 19:21:03 10° W 19:24:13 17° SW 19:27:25 10° S visible
08 Aug - 02:23:18 10° SSW 02:28:57 41° SE 02:34:55 10° NE night (unlit)
08 Aug - 04:06:43 10° SW 04:12:12 34° WNW 04:17:47 10° N night (unlit)
08 Aug - 17:02:31 10° N 17:06:40 38° ENE 17:11:15 10° SE daylight
08 Aug - 18:46:14 10° WNW 18:50:04 24° SW 18:54:06 10° S visible
09 Aug - 01:49:44 10° S 01:54:55 30° SE 02:00:26 10° ENE night (unlit)
09 Aug - 03:32:33 10° SW 03:38:27 48° WNW 03:44:30 10° N night (unlit)
09 Aug - 16:29:23 10° NNE 16:32:59 24° ENE 16:36:57 10° SE daylight
09 Aug - 18:11:46 10° WNW 18:16:01 34° SW 18:20:37 10° SSE visible
10 Aug - 01:16:17 10° S 01:20:50 22° SE 01:25:43 10° E night (unlit)
10 Aug - 02:58:34 10° SSW 03:04:39 69° WNW 03:10:59 10° NNE night (unlit)
10 Aug - 15:56:46 10° NE 15:59:20 15° ENE 16:02:15 10° ESE daylight
10 Aug - 17:37:33 10° NW 17:42:02 50° WSW 17:46:58 10° SSE daylight
